Location: Arborea
(39.7744°N, 8.5819°E)
Time: 01:56:01
(UTC+00:00)

CSL-04 Rocket - Pass Details

Date: 24 October 2021
Orbit: 806 x 860 km, 98.9° (Epoch: 27 November)

Event Time Altitude Azimuth Distance (km) Brightness Sun altitude
Exits shadow 18:56:00 75° 13° (NNE) 893 3.7 -28.0°
Drops below altitude 10° 19:01:07 10° 348° (NNW) 2,505 6.4 -29.0°
Sets 19:03:30 0° 348° (NNW) 3,445 7.1 -29.4°
